Regional Weather Roundup
Issued by NWS Little Rock, AR

Home | Current Version | Previous Version | Graphics & Text | Print | Product List | Glossary On
Versions: 1 2 3 4 5 6 7 8 9 10 11 12 13 14 15 16 17 18 19 20 21 22 23 24 25 26 27 28 29 30 31 32 33 34 35 36 37 38 39 40 41 42 43 44 45 46 47 48 49 50
000
ASUS44 KLZK 012205
RWRLZK

WEATHER ROUNDUP FOR ARKANSAS
NATIONAL WEATHER SERVICE LITTLE ROCK AR
500 PM CDT SUN MAY 01 2016

NOTE: "FAIR" INDICATES FEW OR NO CLOUDS BELOW 12,000 FEET WITH NO
SIGNIFICANT WEATHER AND/OR OBSTRUCTIONS TO VISIBILITY.

ARZ001-003-010-029-012300-
NORTHWEST ARKANSAS

CITY           SKY/WX    TMP DP  RH WIND       PRES   REMARKS
FAYETTEVILLE   SUNNY     67  50  54 NW10G18   30.01S
FORT SMITH     SUNNY     73  45  36 W12       29.97F
HARRISON       SUNNY     71  48  43 NW9       29.98S
BENTONVILLE    SUNNY     64  43  45 NW10      30.03F
ROGERS         SUNNY     63  46  54 NW10      30.02F
SILOAM SPGS    SUNNY     63  45  51 NW12      30.03F
HIGHFILL       SUNNY     65  47  52 NW9       30.02F
SPRINGDALE     SUNNY     64  45  48 NW10G18   30.03F
$$

ARZ004-005-016-012300-
NORTH CENTRAL ARKANSAS

CITY           SKY/WX    TMP DP  RH WIND       PRES   REMARKS
BATESVILLE     SUNNY     79  57  47 NW3       29.93S
FLIPPIN        SUNNY    N/A N/A N/A NW8       29.93S
MTN HOME       SUNNY     73  48  41 VRB5      29.94F
$$

ARZ040-041-012300-
WEST CENTRAL ARKANSAS

CITY           SKY/WX    TMP DP  RH WIND       PRES   REMARKS
MENA           SUNNY     77  46  33 N5        29.97F
MOUNT IDA      SUNNY     79  52  38 NW5       29.92F
$$

ARZ009-017-025-026-028-012300-
NORTHEAST ARKANSAS

CITY           SKY/WX    TMP DP  RH WIND       PRES   REMARKS
CORNING          N/A     77  59  53 W13       29.91F
JONESBORO      SUNNY     79  62  56 W8        29.91F
NEWPORT        SUNNY     79  62  55 NW8       29.93S
WALNUT RIDGE   SUNNY     79  55  44 W8        29.92S
BLYTHEVILLE    PTSUNNY   79  66  64 W3        29.92R
$$

ARZ022-023-033-042-044-012300-
CENTRAL ARKANSAS

CITY           SKY/WX    TMP DP  RH WIND       PRES   REMARKS
LITTLE ROCK    MOSUNNY   81  56  42 N7        29.93S
N LITTLE ROCK    N/A     78  58  50 W5        29.92S
JACKSONVILLE   SUNNY     80  60  51 W8        29.92S
SEARCY         MOSUNNY   81  64  56 NW6       29.93S
HOT SPRINGS    SUNNY     80  54  40 VRB6      29.93F
RUSSELLVILLE   SUNNY     77  51  40 NW7       29.94F
$$

ARZ036-012300-
EAST ARKANSAS

CITY           SKY/WX    TMP DP  RH WIND       PRES   REMARKS
WEST MEMPHIS   SUNNY     79  68  69 VRB3      29.91S
$$

ARZ050-053-066-070-073-012300-
SOUTHWEST ARKANSAS

CITY           SKY/WX    TMP DP  RH WIND       PRES   REMARKS
ARKADELPHIA    FAIR      81  67  62 N7        29.92S
CAMDEN         SUNNY     84  64  51 NW6       29.89F HX  86
TEXARKANA      LGT RAIN  80  60  50 N9        29.92F
EL DORADO      SUNNY     83  69  62 NW7       29.88F HX  86
DE QUEEN       SUNNY     81  54  39 VRB7      29.92S
$$

ARZ056-057-069-012300-
SOUTHEAST ARKANSAS

CITY           SKY/WX    TMP DP  RH WIND       PRES   REMARKS
PINE BLUFF     SUNNY     80  66  62 N10       29.91F
STUTTGART      SUNNY     81  64  57 NW5       29.93S
MONTICELLO     CLOUDY    81  71  71 VRB3      29.89S HX  85

$$





USA.gov is the U.S. government's official web portal to all federal, state and local government web resources and services.